Location: Quaker Farms
(41.4276°N, 73.1557°W)
Time: 02:10:48
(UTC+00:00)

Vanguard 1 - Pass Details

Date: 18 June 2021
Orbit: 651 x 3831 km, 34.2° (Epoch: 28 July)

Event Time Altitude Azimuth Distance (km) Brightness Sun altitude
Rises 01:23:12 0° 224° (SW) 7,823 14.7 -8.9°
Reaches altitude 10° 01:28:46 10° 219° (SW) 6,907 14.3 -9.7°
Maximum altitude 01:50:17 48° 154° (SSE) 4,096 12.8 -12.5°
Drops below altitude 10° 02:05:53 10° 87° (E) 5,186 13.4 -14.4°
Sets 02:09:19 0° 82° (E) 5,833 13.7 -14.8°
